Regional Weather Roundup
Issued by NWS

Home | Current Version | Previous Version | Text Only | Print | Product List | Glossary Off
Versions: 1 2 3 4 5 6 7 8 9 10 11 12 13 14 15 16 17 18 19 20 21 22 23 24 25 26 27 28 29 30 31 32 33 34 35 36 37 38 39 40 41 42 43 44 45 46 47 48 49 50

000
ASUS43 KIND 041609
RWRIN

WEATHER ROUNDUP FOR INDIANA
NATIONAL WEATHER SERVICE INDIANAPOLIS IN
1200 PM EDT MON MAY 04 2015

NOTE: "FAIR" INDICATES FEW OR NO CLOUDS BELOW 12,000 FEET WITH NO
SIGNIFICANT WEATHER AND/OR OBSTRUCTIONS TO VISIBILITY.

* - STATION DOES NOT REPORT WEATHER SUCH AS PRECIPITATION OR FOG.

+ - STATION NOT QUALITY CONTROLLED BY THE NATIONAL WEATHER SERVICE.
    USE DATA WITH CAUTION...ESPECIALLY DEWPOINT AND RELATIVE
    HUMIDITY OBSERVATIONS.

INZ001>003-010>013-019-020-041700-
NORTHWEST INDIANA

CITY           SKY/WX    TMP DP  RH WIND       PRES   REMARKS
GARY /AIRPORT/ PTSUNNY   70 N/A N/A SW6       30.10R
KNOX *+        CLOUDY    63  54  72 S6        30.10R
LA PORTE +     CLOUDY    67  63  86 SW7       30.11R
MICHIGAN CITY+ CLOUDY    70  54  56 W8        30.10R
MONTICELLO +   LGT RAIN  61  60  96 S10       30.09F
VALPARAISO     CLOUDY    65  59  81 SW8       30.11R

$$

LMZ046-743>745-041700-
SOUTHERN LAKE MICHIGAN

STATION/POSITION TIME  TEMP    WIND        PRES    WAVE
                       AIR SEA DIR/SP/G            HT
                 (UTC) (F)     (DEG/KT/KT) (MB)    (FT)
BURNS HARBOR     1600   58     320/  5/  7 1019.6R
MICHIGAN CITY    1600   61     230/ 11/ 12   N/A
5NW MICH CITY    1600   55 49  240/  6/  6   N/A     1

$$

INZ004-005-014>016-021>024-041700-
NORTH CENTRAL INDIANA

CITY           SKY/WX    TMP DP  RH WIND       PRES   REMARKS
ELKHART        MOSUNNY   66  57  72 W10       30.10R
GOSHEN         CLOUDY    65  60  84 SW10      30.10R
LOGANSPORT +   RAIN      59  57  94 S13       30.13S
PERU/GRISSOM   DRIZZLE   60  58  96 S14       30.13R
ROCHESTER +    CLOUDY    66  63  88 S9        30.12R
SOUTH BEND     CLOUDY    69  60  73 SW13      30.10R
WARSAW +       CLOUDY    61  59  94 S6        30.11R

$$

INZ006>009-017-018-025>027-041700-
NORTHEAST INDIANA

CITY           SKY/WX    TMP DP  RH WIND       PRES   REMARKS
ANGOLA *+      MOSUNNY   61  52  72 SW9       30.10R
AUBURN +       LGT RAIN  63  55  77 SW9       30.12S
FORT WAYNE     LGT RAIN  61  58  90 SW10      30.14S
HUNTINGTON +   LGT RAIN  59  58  95 SW5       30.15R

$$

INZ028-029-035-036-043>045-051>053-041700-
WEST CENTRAL INDIANA

CITY           SKY/WX    TMP DP  RH WIND       PRES   REMARKS
CRAWFORDSVL +  CLOUDY    59  53  81 S7        30.14F
GREENCASTLE +  CLOUDY    59  55  88 S7        30.17F FOG
LAFAYETTE      CLOUDY    61  57  87 S9        30.12S
TERRE HAUTE    CLOUDY    64  59  83 SE7       30.15F

$$

INZ030>032-037>040-046>048-054>057-064-065-041700-
CENTRAL INDIANA

CITY           SKY/WX    TMP DP  RH WIND       PRES   REMARKS
CP ATTERBURY + CLOUDY    70  52  52 W10G17    30.21R
COLUMBUS       CLOUDY    68  50  52 W16       30.21R
FISHERS *+     CLOUDY    61  59  94 S6        30.18
FRANKFORT +    CLOUDY    60  60 100 S9        30.17R
GREENWOOD *+   CLOUDY    66  54  63 W8        30.20R
INDIANAPOLIS   LGT RAIN  60  56  86 S5        30.17R FOG
-EAGLE CREEK   LGT RAIN  61  57  87 VRB3      30.17S FOG
KOKOMO *+      CLOUDY    59  57  94 S12       30.15R
MARION +       CLOUDY    58  55  88 SW6       30.17R
MT COMFORT *+  CLOUDY    66  46  48 W10       30.20R
SHELBYVILLE    CLOUDY    72  53  51 W15G24    30.19R
ZIONSVILLE +   LGT RAIN  60  55  83 SE8       30.17F

$$

INZ033-034-041-042-049-050-058-059-041700-
EAST CENTRAL INDIANA

CITY           SKY/WX    TMP DP  RH WIND       PRES   REMARKS
MUNCIE         CLOUDY    66  52  60 W12       30.18R

$$

INZ060-061-067>069-081>083-085>088-041700-
SOUTHWEST INDIANA

CITY           SKY/WX    TMP DP  RH WIND       PRES   REMARKS
EVANSVILLE     MOSUNNY   75  56  51 S7        30.19R
HUNTINGBURG *+ MOSUNNY   72  57  60 SW9       30.20S
WASHINGTON +   PTSUNNY   73  52  47 SW5       30.18R

$$

INZ062-063-066-070>080-084-089>092-041700-
SOUTH CENTRAL AND SOUTHEAST INDIANA

CITY           SKY/WX    TMP DP  RH WIND       PRES   REMARKS
BEDFORD +      CLOUDY    72  52  49 W3        30.20R
BLOOMINGTON    CLOUDY    72  53  51 CALM      30.19R
MADISON *+     PTSUNNY   73  50  43 S8        30.23R
NORTH VERNON + PTSUNNY   73  52  46 SW12      30.20R
SEYMOUR +      PTSUNNY   73  54  49 W10G18    30.20R

$$




USA.gov is the U.S. government's official web portal to all federal, state and local government web resources and services.